Simultaneous Nadir Overpasses (SNOs) Predictions

Prediction of SNOs between GOES-16 and NOAA-19 Satellite Orbit:

Table of predicted SNOs for the next 14.0 days since TLE Epoch: 4/21/2023
Index Date Time (GOES-16) GOES-16 Lat,Lon NOAA-19 Lat,Lon Distance(km) Time Diff (sec)
1 04/22/2023 13:11:06 0.05, -75.20 -0.90, -71.02 476.74 80
2 04/24/2023 01:46:06 -0.05, -75.20 -0.88, -78.77 407.99 80
3 04/25/2023 01:34:05 -0.05, -75.20 -0.21, -75.85 74.17 80
4 04/26/2023 01:19:26 -0.04, -75.20 0.51, -72.93 259.89 80
5 04/28/2023 13:42:10 0.04, -75.22 0.62, -77.69 282.30 80
6 04/29/2023 13:27:30 0.03, -75.23 -0.09, -74.78 52.42 80
7 04/30/2023 13:15:30 0.03, -75.24 -0.76, -71.85 387.21 80
8 05/02/2023 01:50:26 -0.03, -75.26 -1.06, -79.58 494.33 80
9 05/03/2023 01:38:25 -0.03, -75.27 -0.38, -76.66 158.94 80
10 05/04/2023 01:23:45 -0.03, -75.29 0.31, -73.74 176.60 80
